Wetterdaten: Woche 01.12.14 - 07.12.14 (KW49)
Datum Zeit Temperatur Luftfeuchte Luftdruck Niederschlag Windrichtung Sonnenschein Solar Wind
01.12.2014 00:00 0,9 C 100 % 1006,6 hPa 0,0 l/m NO 0,00 h 0 W/m 11,6 km/h (2 Bft)
01.12.2014 01:00 0,8 C 100 % 1005,9 hPa 0,0 l/m O-NO 0,00 h 0 W/m 14,6 km/h (3 Bft)
01.12.2014 02:00 0,8 C 100 % 1005,4 hPa 0,0 l/m NO 0,00 h 0 W/m 14,6 km/h (3 Bft)
01.12.2014 03:00 1,0 C 100 % 1005,1 hPa 0,0 l/m NO 0,00 h 0 W/m 11,7 km/h (2 Bft)
01.12.2014 04:00 1,2 C 100 % 1004,8 hPa 0,4 l/m NO 0,00 h 0 W/m 13,3 km/h (3 Bft)
01.12.2014 05:00 1,3 C 100 % 1004,7 hPa 0,4 l/m O-NO 0,00 h 0 W/m 13,7 km/h (3 Bft)
01.12.2014 06:00 1,3 C 100 % 1004,1 hPa 0,2 l/m NO 0,00 h 0 W/m 15,3 km/h (3 Bft)
01.12.2014 07:00 1,3 C 100 % 1004,0 hPa 0,8 l/m NO 0,00 h 0 W/m 13,8 km/h (3 Bft)
01.12.2014 08:00 1,3 C 100 % 1004,4 hPa 0,0 l/m O-NO 0,00 h 6 W/m 14,0 km/h (3 Bft)
01.12.2014 09:00 1,6 C 100 % 1004,8 hPa 0,0 l/m O-NO 0,00 h 13 W/m 14,6 km/h (3 Bft)
01.12.2014 10:00 1,8 C 100 % 1004,9 hPa 0,0 l/m O-NO 0,00 h 27 W/m 15,0 km/h (3 Bft)
01.12.2014 11:00 1,9 C 100 % 1004,7 hPa 0,0 l/m O-NO 0,00 h 26 W/m 15,3 km/h (3 Bft)
01.12.2014 12:00 1,8 C 100 % 1004,5 hPa 0,0 l/m O-NO 0,00 h 15 W/m 13,7 km/h (3 Bft)
01.12.2014 13:00 1,6 C 100 % 1004,1 hPa 0,0 l/m NO 0,00 h 11 W/m 14,8 km/h (3 Bft)
01.12.2014 14:00 1,5 C 100 % 1004,3 hPa 0,0 l/m NO 0,00 h 8 W/m 13,6 km/h (3 Bft)
01.12.2014 15:00 1,6 C 100 % 1005,0 hPa 0,0 l/m O-NO 0,00 h 9 W/m 13,0 km/h (3 Bft)
01.12.2014 16:00 1,6 C 100 % 1005,8 hPa 0,2 l/m O-NO 0,00 h 5 W/m 11,1 km/h (2 Bft)
01.12.2014 17:00 1,7 C 100 % 1006,0 hPa 0,0 l/m O-NO 0,00 h 0 W/m 4,8 km/h (1 Bft)
01.12.2014 18:00 1,7 C 100 % 1006,2 hPa 0,0 l/m N 0,00 h 0 W/m 3,1 km/h (1 Bft)
01.12.2014 19:00 1,7 C 100 % 1006,5 hPa 0,0 l/m N 0,00 h 0 W/m 1,6 km/h (1 Bft)
01.12.2014 20:00 1,7 C 100 % 1006,8 hPa 0,2 l/m O-NO 0,00 h 0 W/m 2,8 km/h (1 Bft)
01.12.2014 21:00 1,7 C 100 % 1006,9 hPa 0,0 l/m O-NO 0,00 h 0 W/m 3,6 km/h (1 Bft)
01.12.2014 22:00 1,8 C 100 % 1007,1 hPa 0,0 l/m N 0,00 h 0 W/m 2,1 km/h (1 Bft)
01.12.2014 23:00 1,8 C 100 % 1007,0 hPa 0,0 l/m N 0,00 h 0 W/m 0,3 km/h (0 Bft)
02.12.2014 00:00 1,7 C 100 % 1007,1 hPa 0,0 l/m N 0,00 h 0 W/m 0,0 km/h (0 Bft)
02.12.2014 01:00 1,7 C 100 % 1007,1 hPa 0,0 l/m N 0,00 h 0 W/m 0,1 km/h (0 Bft)
02.12.2014 02:00 1,7 C 100 % 1007,0 hPa 0,0 l/m N 0,00 h 0 W/m 0,0 km/h (0 Bft)
02.12.2014 03:00 1,7 C 100 % 1007,2 hPa 0,0 l/m N 0,00 h 0 W/m 0,0 km/h (0 Bft)
02.12.2014 04:00 1,8 C 100 % 1007,1 hPa 0,0 l/m N 0,00 h 0 W/m 0,0 km/h (0 Bft)
02.12.2014 05:00 1,8 C 100 % 1007,4 hPa 0,0 l/m N 0,00 h 0 W/m 0,1 km/h (0 Bft)
02.12.2014 06:00 1,8 C 100 % 1007,7 hPa 0,0 l/m N 0,00 h 0 W/m 0,0 km/h (0 Bft)
02.12.2014 07:00 1,9 C 100 % 1007,9 hPa 0,0 l/m O-NO 0,00 h 0 W/m 0,8 km/h (0 Bft)
02.12.2014 08:00 1,9 C 100 % 1008,3 hPa 0,0 l/m N 0,00 h 8 W/m 0,0 km/h (0 Bft)
02.12.2014 09:00 2,0 C 100 % 1008,6 hPa 0,2 l/m N 0,00 h 14 W/m 0,0 km/h (0 Bft)
02.12.2014 10:00 2,1 C 100 % 1008,6 hPa 0,0 l/m N 0,00 h 23 W/m 0,0 km/h (0 Bft)
02.12.2014 11:00 2,2 C 100 % 1008,4 hPa 0,2 l/m N 0,00 h 17 W/m 1,5 km/h (1 Bft)
02.12.2014 12:00 2,3 C 100 % 1008,4 hPa 0,2 l/m O-NO 0,00 h 29 W/m 3,3 km/h (1 Bft)
02.12.2014 13:00 2,4 C 100 % 1008,4 hPa 0,0 l/m O-NO 0,00 h 23 W/m 4,3 km/h (1 Bft)
02.12.2014 14:00 2,5 C 100 % 1008,4 hPa 0,0 l/m O-NO 0,00 h 23 W/m 2,7 km/h (1 Bft)
02.12.2014 15:00 2,6 C 100 % 1008,6 hPa 0,2 l/m O-NO 0,00 h 9 W/m 4,4 km/h (1 Bft)
02.12.2014 16:00 2,4 C 100 % 1008,9 hPa 0,0 l/m O-NO 0,00 h 0 W/m 4,4 km/h (1 Bft)
02.12.2014 17:00 2,3 C 100 % 1009,2 hPa 0,0 l/m O-NO 0,00 h 0 W/m 4,1 km/h (1 Bft)
02.12.2014 18:00 2,2 C 100 % 1009,6 hPa 0,4 l/m O-NO 0,00 h 0 W/m 4,1 km/h (1 Bft)
02.12.2014 19:00 2,1 C 100 % 1009,9 hPa 0,4 l/m O-NO 0,00 h 0 W/m 4,5 km/h (1 Bft)
02.12.2014 20:00 1,9 C 100 % 1010,3 hPa 0,0 l/m O-NO 0,00 h 0 W/m 2,7 km/h (1 Bft)
02.12.2014 21:00 2,0 C 100 % 1010,7 hPa 0,4 l/m N 0,00 h 0 W/m 1,6 km/h (1 Bft)
02.12.2014 22:00 2,1 C 100 % 1010,9 hPa 0,2 l/m N 0,00 h 0 W/m 1,1 km/h (0 Bft)
02.12.2014 23:00 2,4 C 100 % 1011,3 hPa 0,2 l/m O-NO 0,00 h 0 W/m 4,4 km/h (1 Bft)
03.12.2014 00:00 2,4 C 100 % 1011,4 hPa 0,4 l/m O-NO 0,00 h 0 W/m 7,8 km/h (2 Bft)
03.12.2014 01:00 2,3 C 100 % 1011,4 hPa 0,0 l/m O-NO 0,00 h 0 W/m 7,2 km/h (2 Bft)
03.12.2014 02:00 2,2 C 100 % 1011,8 hPa 0,4 l/m O-NO 0,00 h 0 W/m 6,6 km/h (2 Bft)
03.12.2014 03:00 2,0 C 100 % 1012,0 hPa 0,0 l/m O-NO 0,00 h 0 W/m 6,7 km/h (2 Bft)
03.12.2014 04:00 1,8 C 100 % 1012,3 hPa 0,0 l/m O-NO 0,00 h 0 W/m 5,7 km/h (1 Bft)
03.12.2014 05:00 1,8 C 100 % 1012,6 hPa 0,0 l/m O-NO 0,00 h 0 W/m 5,9 km/h (2 Bft)
03.12.2014 06:00 1,6 C 100 % 1012,9 hPa 0,2 l/m NO 0,00 h 0 W/m 9,0 km/h (2 Bft)
03.12.2014 07:00 1,6 C 100 % 1013,4 hPa 0,0 l/m O-NO 0,00 h 0 W/m 10,9 km/h (2 Bft)
03.12.2014 08:00 1,6 C 100 % 1013,9 hPa 0,0 l/m O-NO 0,00 h 6 W/m 8,3 km/h (2 Bft)
03.12.2014 09:00 1,7 C 100 % 1014,4 hPa 0,0 l/m O-NO 0,00 h 22 W/m 8,8 km/h (2 Bft)
03.12.2014 10:00 1,7 C 100 % 1014,9 hPa 0,2 l/m O-NO 0,00 h 30 W/m 10,2 km/h (2 Bft)
03.12.2014 11:00 1,9 C 100 % 1015,0 hPa 0,0 l/m NO 0,00 h 55 W/m 10,2 km/h (2 Bft)
03.12.2014 12:00 2,0 C 100 % 1014,9 hPa 0,0 l/m O-NO 0,00 h 33 W/m 7,5 km/h (2 Bft)
03.12.2014 13:00 1,9 C 99 % 1014,8 hPa 0,0 l/m NO 0,00 h 32 W/m 8,7 km/h (2 Bft)
03.12.2014 14:00 1,8 C 99 % 1014,7 hPa 0,0 l/m O-NO 0,00 h 19 W/m 11,1 km/h (2 Bft)
03.12.2014 15:00 1,8 C 99 % 1014,9 hPa 0,0 l/m O-NO 0,00 h 10 W/m 11,4 km/h (2 Bft)
03.12.2014 16:00 1,8 C 99 % 1015,0 hPa 0,0 l/m O-NO 0,00 h 0 W/m 9,8 km/h (2 Bft)
03.12.2014 17:00 1,8 C 99 % 1015,1 hPa 0,0 l/m NO 0,00 h 0 W/m 9,8 km/h (2 Bft)
03.12.2014 18:00 1,9 C 99 % 1015,2 hPa 0,0 l/m O-NO 0,00 h 0 W/m 9,9 km/h (2 Bft)
03.12.2014 19:00 1,8 C 99 % 1014,9 hPa 0,0 l/m O-NO 0,00 h 0 W/m 8,6 km/h (2 Bft)
03.12.2014 20:00 1,9 C 99 % 1015,1 hPa 0,0 l/m O-NO 0,00 h 0 W/m 7,9 km/h (2 Bft)
03.12.2014 21:00 1,8 C 99 % 1015,1 hPa 0,0 l/m O 0,00 h 0 W/m 9,7 km/h (2 Bft)
03.12.2014 22:00 1,8 C 99 % 1015,0 hPa 0,0 l/m O-NO 0,00 h 0 W/m 9,8 km/h (2 Bft)
03.12.2014 23:00 1,7 C 99 % 1014,9 hPa 0,0 l/m O 0,00 h 0 W/m 11,4 km/h (2 Bft)
04.12.2014 00:00 1,7 C 99 % 1014,7 hPa 0,0 l/m O 0,00 h 0 W/m 8,9 km/h (2 Bft)
04.12.2014 01:00 1,5 C 99 % 1014,5 hPa 0,0 l/m O-NO 0,00 h 0 W/m 11,2 km/h (2 Bft)
04.12.2014 02:00 1,3 C 98 % 1014,2 hPa 0,0 l/m O-NO 0,00 h 0 W/m 9,4 km/h (2 Bft)
04.12.2014 03:00 1,2 C 98 % 1013,7 hPa 0,0 l/m O-NO 0,00 h 0 W/m 10,1 km/h (2 Bft)
04.12.2014 04:00 1,0 C 98 % 1013,6 hPa 0,0 l/m O-NO 0,00 h 0 W/m 7,3 km/h (2 Bft)
04.12.2014 05:00 1,1 C 98 % 1013,5 hPa 0,0 l/m O-NO 0,00 h 0 W/m 5,5 km/h (1 Bft)
04.12.2014 06:00 1,1 C 98 % 1013,3 hPa 0,0 l/m O-NO 0,00 h 0 W/m 4,7 km/h (1 Bft)
04.12.2014 07:00 1,1 C 98 % 1013,2 hPa 0,0 l/m NO 0,00 h 0 W/m 5,2 km/h (1 Bft)
04.12.2014 08:00 1,2 C 98 % 1013,3 hPa 0,0 l/m N 0,00 h 7 W/m 2,5 km/h (1 Bft)
04.12.2014 09:00 1,3 C 98 % 1013,7 hPa 0,0 l/m N 0,00 h 19 W/m 0,9 km/h (0 Bft)
04.12.2014 10:00 1,6 C 99 % 1013,7 hPa 0,0 l/m O-NO 0,00 h 48 W/m 1,7 km/h (1 Bft)
04.12.2014 11:00 2,2 C 99 % 1013,4 hPa 0,0 l/m N 0,00 h 61 W/m 0,4 km/h (0 Bft)
04.12.2014 12:00 2,7 C 99 % 1013,3 hPa 0,0 l/m O-NO 0,00 h 47 W/m 3,1 km/h (1 Bft)
04.12.2014 13:00 2,8 C 98 % 1013,1 hPa 0,0 l/m W-SW 0,00 h 35 W/m 5,6 km/h (1 Bft)
04.12.2014 14:00 2,6 C 96 % 1013,2 hPa 0,0 l/m SW 0,00 h 23 W/m 6,0 km/h (2 Bft)
04.12.2014 15:00 2,5 C 96 % 1013,5 hPa 0,0 l/m SW 0,00 h 11 W/m 5,5 km/h (1 Bft)
04.12.2014 16:00 2,5 C 96 % 1014,0 hPa 0,0 l/m SW 0,00 h 5 W/m 2,5 km/h (1 Bft)
04.12.2014 17:00 2,6 C 96 % 1014,2 hPa 0,0 l/m SW 0,00 h 0 W/m 4,8 km/h (1 Bft)
04.12.2014 18:00 2,7 C 96 % 1014,4 hPa 0,0 l/m W-SW 0,00 h 0 W/m 4,6 km/h (1 Bft)
04.12.2014 19:00 2,7 C 96 % 1014,3 hPa 0,0 l/m W-SW 0,00 h 0 W/m 5,3 km/h (1 Bft)
04.12.2014 20:00 2,7 C 97 % 1014,4 hPa 0,0 l/m W-SW 0,00 h 0 W/m 7,8 km/h (2 Bft)
04.12.2014 21:00 2,6 C 97 % 1014,6 hPa 0,0 l/m SW 0,00 h 0 W/m 7,8 km/h (2 Bft)
04.12.2014 22:00 2,7 C 97 % 1014,8 hPa 0,0 l/m SW 0,00 h 0 W/m 7,1 km/h (2 Bft)
04.12.2014 23:00 2,7 C 97 % 1014,9 hPa 0,0 l/m SW 0,00 h 0 W/m 6,8 km/h (2 Bft)
05.12.2014 00:00 2,6 C 97 % 1014,9 hPa 0,0 l/m SW 0,00 h 0 W/m 3,2 km/h (1 Bft)
05.12.2014 01:00 2,3 C 97 % 1015,2 hPa 0,0 l/m W-SW 0,00 h 0 W/m 3,7 km/h (1 Bft)
05.12.2014 02:00 2,1 C 98 % 1015,3 hPa 0,0 l/m W-SW 0,00 h 0 W/m 2,7 km/h (1 Bft)
05.12.2014 03:00 1,9 C 98 % 1015,5 hPa 0,0 l/m N 0,00 h 0 W/m 0,3 km/h (0 Bft)
05.12.2014 04:00 2,0 C 98 % 1015,4 hPa 0,0 l/m N 0,00 h 0 W/m 0,0 km/h (0 Bft)
05.12.2014 05:00 2,0 C 98 % 1015,7 hPa 0,0 l/m N 0,00 h 0 W/m 0,3 km/h (0 Bft)
05.12.2014 06:00 1,9 C 98 % 1016,1 hPa 0,0 l/m N 0,00 h 0 W/m 2,0 km/h (1 Bft)
05.12.2014 07:00 1,7 C 99 % 1016,4 hPa 0,0 l/m N 0,00 h 0 W/m 1,1 km/h (0 Bft)
05.12.2014 08:00 1,4 C 99 % 1016,7 hPa 0,0 l/m W-SW 0,00 h 7 W/m 1,3 km/h (1 Bft)
05.12.2014 09:00 1,4 C 99 % 1017,0 hPa 0,0 l/m W-SW 0,00 h 18 W/m 1,9 km/h (1 Bft)
05.12.2014 10:00 1,6 C 99 % 1017,3 hPa 0,0 l/m W-SW 0,00 h 30 W/m 2,5 km/h (1 Bft)
05.12.2014 11:00 1,9 C 99 % 1017,2 hPa 0,0 l/m W-SW 0,00 h 34 W/m 2,8 km/h (1 Bft)
05.12.2014 12:00 2,0 C 99 % 1016,9 hPa 0,0 l/m O-SO 0,00 h 36 W/m 5,9 km/h (2 Bft)
05.12.2014 13:00 1,9 C 99 % 1016,7 hPa 0,0 l/m O-NO 0,00 h 32 W/m 6,7 km/h (2 Bft)
05.12.2014 14:00 1,9 C 99 % 1016,6 hPa 0,0 l/m O-NO 0,00 h 18 W/m 6,1 km/h (2 Bft)
05.12.2014 15:00 1,8 C 99 % 1016,9 hPa 0,6 l/m N-NO 0,00 h 9 W/m 8,2 km/h (2 Bft)
05.12.2014 16:00 1,6 C 99 % 1017,2 hPa 0,0 l/m O 0,00 h 0 W/m 6,3 km/h (2 Bft)
05.12.2014 17:00 1,4 C 99 % 1017,5 hPa 0,0 l/m O-SO 0,00 h 0 W/m 4,4 km/h (1 Bft)
05.12.2014 18:00 1,3 C 99 % 1017,5 hPa 0,0 l/m O-SO 0,00 h 0 W/m 2,1 km/h (1 Bft)
05.12.2014 19:00 1,3 C 99 % 1017,6 hPa 0,0 l/m N 0,00 h 0 W/m 0,3 km/h (0 Bft)
05.12.2014 20:00 1,3 C 99 % 1018,0 hPa 0,0 l/m N 0,00 h 0 W/m 0,8 km/h (0 Bft)
05.12.2014 21:00 1,3 C 99 % 1018,2 hPa 0,2 l/m O-NO 0,00 h 0 W/m 5,9 km/h (2 Bft)
05.12.2014 22:00 1,2 C 99 % 1018,5 hPa 0,0 l/m NO 0,00 h 0 W/m 5,6 km/h (1 Bft)
05.12.2014 23:00 1,1 C 99 % 1018,7 hPa 0,0 l/m N 0,00 h 0 W/m 2,7 km/h (1 Bft)
06.12.2014 00:00 1,0 C 99 % 1018,7 hPa 0,2 l/m N 0,00 h 0 W/m 0,9 km/h (0 Bft)
06.12.2014 01:00 1,0 C 99 % 1018,7 hPa 0,0 l/m N 0,00 h 0 W/m 1,5 km/h (1 Bft)
06.12.2014 02:00 0,9 C 99 % 1018,6 hPa 0,0 l/m N 0,00 h 0 W/m 0,3 km/h (0 Bft)
06.12.2014 03:00 0,9 C 99 % 1018,6 hPa 0,0 l/m N 0,00 h 0 W/m 1,2 km/h (1 Bft)
06.12.2014 04:00 1,0 C 99 % 1018,6 hPa 0,0 l/m NO 0,00 h 0 W/m 0,7 km/h (0 Bft)
06.12.2014 05:00 0,9 C 99 % 1018,6 hPa 0,0 l/m N 0,00 h 0 W/m 0,7 km/h (0 Bft)
06.12.2014 06:00 1,0 C 99 % 1019,0 hPa 0,0 l/m N 0,00 h 0 W/m 0,8 km/h (0 Bft)
06.12.2014 07:00 1,1 C 99 % 1019,5 hPa 0,0 l/m N 0,00 h 0 W/m 2,0 km/h (1 Bft)
06.12.2014 08:00 1,1 C 99 % 1020,0 hPa 0,0 l/m N 0,00 h 8 W/m 1,6 km/h (1 Bft)
06.12.2014 09:00 1,3 C 99 % 1020,4 hPa 0,0 l/m N 0,00 h 23 W/m 1,7 km/h (1 Bft)
06.12.2014 10:00 1,5 C 99 % 1020,6 hPa 0,2 l/m NO 0,00 h 55 W/m 4,1 km/h (1 Bft)
06.12.2014 11:00 1,7 C 99 % 1020,7 hPa 0,0 l/m NO 0,00 h 57 W/m 5,5 km/h (1 Bft)
06.12.2014 12:00 1,9 C 99 % 1020,5 hPa 0,4 l/m NO 0,00 h 56 W/m 4,4 km/h (1 Bft)
06.12.2014 13:00 2,0 C 99 % 1020,1 hPa 0,0 l/m NO 0,00 h 64 W/m 7,8 km/h (2 Bft)
06.12.2014 14:00 2,0 C 99 % 1020,1 hPa 0,0 l/m NO 0,00 h 28 W/m 6,5 km/h (2 Bft)
06.12.2014 15:00 1,8 C 98 % 1020,3 hPa 0,0 l/m NO 0,00 h 23 W/m 9,1 km/h (2 Bft)
06.12.2014 16:00 1,6 C 98 % 1020,8 hPa 0,0 l/m NO 0,00 h 8 W/m 8,6 km/h (2 Bft)
06.12.2014 17:00 1,4 C 98 % 1021,2 hPa 0,0 l/m NO 0,00 h 0 W/m 6,3 km/h (2 Bft)
06.12.2014 18:00 1,6 C 98 % 1021,3 hPa 0,0 l/m NO 0,00 h 0 W/m 5,2 km/h (1 Bft)
06.12.2014 19:00 1,7 C 98 % 1021,5 hPa 0,0 l/m NO 0,00 h 0 W/m 3,7 km/h (1 Bft)
06.12.2014 20:00 1,8 C 98 % 1021,5 hPa 0,0 l/m NO 0,00 h 0 W/m 6,7 km/h (2 Bft)
06.12.2014 21:00 1,8 C 98 % 1021,5 hPa 0,0 l/m NO 0,00 h 0 W/m 6,8 km/h (2 Bft)
06.12.2014 22:00 1,9 C 99 % 1021,7 hPa 0,0 l/m NO 0,00 h 0 W/m 7,6 km/h (2 Bft)
06.12.2014 23:00 1,9 C 99 % 1021,8 hPa 0,2 l/m NO 0,00 h 0 W/m 6,4 km/h (2 Bft)
07.12.2014 00:00 1,9 C 99 % 1021,6 hPa 0,0 l/m NO 0,00 h 0 W/m 6,3 km/h (2 Bft)
07.12.2014 01:00 1,9 C 99 % 1021,4 hPa 0,2 l/m NO 0,00 h 0 W/m 4,5 km/h (1 Bft)
07.12.2014 02:00 1,9 C 99 % 1021,2 hPa 0,0 l/m N 0,00 h 0 W/m 3,2 km/h (1 Bft)
07.12.2014 03:00 2,0 C 99 % 1021,0 hPa 0,0 l/m NO 0,00 h 0 W/m 3,5 km/h (1 Bft)
07.12.2014 04:00 1,9 C 99 % 1020,9 hPa 0,0 l/m NO 0,00 h 0 W/m 5,9 km/h (2 Bft)
07.12.2014 05:00 1,9 C 99 % 1020,8 hPa 0,0 l/m NO 0,00 h 0 W/m 5,1 km/h (1 Bft)
07.12.2014 06:00 1,9 C 99 % 1020,9 hPa 0,0 l/m NO 0,00 h 0 W/m 5,7 km/h (1 Bft)
07.12.2014 07:00 1,9 C 99 % 1021,1 hPa 0,0 l/m NO 0,00 h 0 W/m 5,5 km/h (1 Bft)
07.12.2014 08:00 1,8 C 99 % 1021,6 hPa 0,0 l/m NO 0,00 h 8 W/m 6,1 km/h (2 Bft)
07.12.2014 09:00 1,9 C 99 % 1021,8 hPa 0,0 l/m NO 0,00 h 22 W/m 5,6 km/h (1 Bft)
07.12.2014 10:00 2,2 C 100 % 1021,9 hPa 0,0 l/m NO 0,00 h 38 W/m 2,7 km/h (1 Bft)
07.12.2014 11:00 2,4 C 100 % 1021,6 hPa 0,0 l/m N 0,00 h 38 W/m 1,2 km/h (1 Bft)
07.12.2014 12:00 2,5 C 99 % 1021,3 hPa 0,0 l/m NO 0,00 h 28 W/m 2,4 km/h (1 Bft)
07.12.2014 13:00 2,6 C 99 % 1021,0 hPa 0,0 l/m NO 0,00 h 19 W/m 2,3 km/h (1 Bft)
07.12.2014 14:00 2,6 C 99 % 1020,8 hPa 0,0 l/m NO 0,00 h 11 W/m 4,5 km/h (1 Bft)
07.12.2014 15:00 2,5 C 99 % 1020,6 hPa 0,0 l/m NO 0,00 h 19 W/m 2,7 km/h (1 Bft)
07.12.2014 16:00 2,6 C 98 % 1020,7 hPa 0,0 l/m N 0,00 h 5 W/m 1,3 km/h (1 Bft)
07.12.2014 17:00 2,6 C 98 % 1020,8 hPa 0,0 l/m NO 0,00 h 0 W/m 4,7 km/h (1 Bft)
07.12.2014 18:00 2,6 C 98 % 1021,1 hPa 0,0 l/m W 0,00 h 0 W/m 9,9 km/h (2 Bft)
07.12.2014 19:00 2,6 C 97 % 1021,0 hPa 0,0 l/m W 0,00 h 0 W/m 8,4 km/h (2 Bft)
07.12.2014 20:00 2,6 C 97 % 1021,2 hPa 0,0 l/m W 0,00 h 0 W/m 7,9 km/h (2 Bft)
07.12.2014 21:00 2,6 C 97 % 1021,4 hPa 0,0 l/m W-SW 0,00 h 0 W/m 10,1 km/h (2 Bft)
07.12.2014 22:00 2,4 C 97 % 1021,3 hPa 0,0 l/m W-SW 0,00 h 0 W/m 12,1 km/h (2 Bft)
07.12.2014 23:00 2,0 C 96 % 1021,0 hPa 0,0 l/m SW 0,00 h 0 W/m 13,8 km/h (3 Bft)
Min-Datum _ 01.12.14 04.12.14 01.12.14 - - - - 01.12.14
_ Min-Zeit 01:20 14:15 07:10 - - - - 18:25
Minimum _ 0,7 C 96 % 1003,6 hPa - - - - 0,0 km/h (0 Bft)
Max-Datum _ 04.12.14 01.12.14 07.12.14 01.12.14 - 01.12.14 06.12.14 01.12.14
_ Max-Zeit 12:45 00:00 10:05 07:00 - 00:00 13:15 06:55
Maximum _ 2,8 C 100 % 1022,0 hPa 0,8 l/m - 0,00 h 97 W/m 24,1 km/h
O-NO (4 Bft)
Durchschnitt _ 1,8 C 99 % 1014,3 hPa #7,8 l/m O-NO #0 min. 24 W/m 5,7 km/h (1 Bft)